Location: Boss Branch
(32.3799°N, 97.2508°W)
Time: 15:02:09
(UTC+00:00)

deb Explorer IX - Pass Details

Date: 13 November 2024
Orbit: 492 x 761 km, 38.7° (Epoch: 01 December)

Event Time Altitude Azimuth Distance (km) Brightness Sun altitude
Rises 00:33:28 0° 247° (WSW) 2,978 ? -13.7°
Reaches altitude 10° 00:35:45 10° 248° (WSW) 2,115 ? -14.1°
Maximum altitude 00:40:45 84° 337° (NNW) 731 ? -15.2°
Enters shadow 00:43:58 25° 64° (ENE) 1,492 ? -15.8°
